{"data":{"norad_id":58770,"epoch":"2026-05-25T01:19:20.957088Z","epoch_age_seconds":60395,"freshness":"FRESH","line1":"1 58770U 24011F   26145.05510367  .00001303  00000+0  56118-4 0  9991","line2":"2 58770  53.1611  18.8622 0001264  83.9713 276.1432 15.30194556131961","mean_motion":15.30194556,"eccentricity":0.0001264,"inclination_deg":53.1611,"raan_deg":18.8622,"arg_perigee_deg":83.9713,"mean_anomaly_deg":276.1432,"bstar":5.6118e-5,"rev_number":13196,"period_min":94.105680506682,"perigee_km":474.36505851404,"apogee_km":476.09759002642,"semimajor_km":6853.3683242702,"source":"CELESTRAK","updated_at":"2026-05-25T13:38:18.744855Z"}}